Volver al catálogo

STARLINK-11399

ActivoComunicacionesVLEO
NORAD 63063·PAYLOAD·🇺🇸 United States

Lanzado Feb 21, 2025 desde Cape Canaveral Space Force Station

Loading…

Próximos Pases (próximas 24 horas)

TLE

ActualizadoSource: CelesTrak SupGP

Época: Sep 15, 2026, 03:36 UTC

1 63063C 25035M   26258.15048611  .00088487  00000+0  68651-3 0  2583
2 63063  43.0001 313.0367 0001553 265.3349  14.3058 15.70821285    18

Sigue STARLINK-11399 en tiempo real con AllMySat

Download on the App Store